CET,Max TemperatureF,Mean TemperatureF,Min TemperatureF,Max Dew PointF,MeanDew PointF,Min DewpointF,Max Humidity, Mean Humidity, Min Humidity, Max Sea Level PressureIn, Mean Sea Level PressureIn, Min Sea Level PressureIn, Max VisibilityMiles, Mean VisibilityMiles, Min VisibilityMiles, Max Wind SpeedMPH, Mean Wind SpeedMPH, Max Gust SpeedMPH,PrecipitationIn, CloudCover, Events, WindDirDegrees
2012-10-1,78,69,60,64,61,56,94,78,37,30.15,30.12,30.09,16,7,6,14,4,,0.00,1,,227
2012-10-2,80,70,59,64,60,54,100,73,34,30.18,30.14,30.12,16,9,6,8,3,,0.00,1,,207
2012-10-3,81,70,59,64,59,48,100,70,23,30.15,30.11,30.06,19,17,12,8,3,,0.00,,,190
2012-10-4,77,68,59,68,62,50,94,77,50,30.09,30.02,29.98,19,8,6,14,5,,0.00,1,,40
2012-10-5,80,71,62,68,62,53,88,73,43,30.12,30.04,30.01,19,7,6,8,3,,0.00,1,,215
2012-10-6,81,72,64,68,66,60,100,79,39,30.15,30.10,30.06,12,7,6,9,3,,0.00,2,,206
2012-10-7,87,74,62,72,64,58,100,76,28,30.15,30.11,30.06,12,7,4,10,3,,0.00,,,168
2012-10-8,85,74,62,66,63,58,94,75,29,30.14,30.09,30.04,9,6,3,9,2,,0.00,1,Fog,198
2012-10-9,91,78,65,66,60,51,94,59,27,30.04,30.00,29.98,19,10,5,13,4,,0.00,,,170
2012-10-10,87,76,64,70,62,56,88,65,33,29.98,29.92,29.86,12,7,6,9,3,,0.00,1,,216
2012-10-11,88,78,67,68,62,54,94,63,24,29.89,29.85,29.83,16,8,6,15,4,,0.00,2,,258
2012-10-12,83,74,66,66,58,50,94,59,27,29.98,29.92,29.86,19,7,6,17,8,21,0.12,2,Rain,287
2012-10-13,76,69,62,66,60,49,94,74,30,29.98,29.94,29.89,19,6,3,13,5,,0.71,3,Rain,246
2012-10-14,76,68,59,63,58,48,100,74,28,29.98,29.83,29.71,16,7,6,14,5,,0.02,1,,226
2012-10-15,72,66,59,57,49,39,77,56,23,30.01,29.83,29.68,16,7,6,16,7,29,0.02,1,Rain,288
2012-10-16,75,64,52,61,51,40,88,63,24,30.06,30.02,29.98,19,8,6,14,7,,0.00,1,,231
2012-10-17,78,66,55,57,53,40,100,68,16,30.01,29.92,29.83,19,10,6,7,3,21,0.00,1,,302
2012-10-18,79,68,57,66,57,47,88,65,41,29.83,29.72,29.62,12,7,3,16,5,,0.00,4,,44
2012-10-19,73,70,66,66,64,60,94,77,51,29.89,29.76,29.65,7,6,2,10,4,,0.00,3,Rain,163
2012-10-20,73,66,60,64,62,59,100,88,61,29.89,29.81,29.77,12,6,2,13,5,,0.16,5,Rain,225
2012-10-21,62,60,57,61,58,54,100,90,75,30.01,29.88,29.77,19,7,5,12,4,22,0.20,4,Rain,229
2012-10-22,76,66,55,59,54,48,94,72,34,30.12,30.05,30.01,19,8,6,15,6,,0.00,1,,256
2012-10-23,75,65,55,61,57,52,94,78,42,30.12,30.09,30.06,16,7,6,7,3,,0.00,1,,251
2012-10-24,72,64,56,64,59,53,100,86,60,30.07,30.00,29.92,11,7,6,8,2,,0.00,3,Rain,196
2012-10-25,72,66,59,66,61,54,94,82,64,29.95,29.82,29.74,12,7,6,10,3,,0.00,2,Rain,34
2012-10-26,76,68,59,63,60,53,100,82,40,29.74,29.62,29.53,19,6,2,10,5,,0.03,1,Rain,227
2012-10-27,76,68,59,57,54,48,94,63,28,29.71,29.57,29.50,9,6,6,21,10,29,0.00,2,Rain,262
2012-10-28,66,57,48,48,29,15,56,34,7,30.04,29.94,29.71,19,7,6,17,10,31,0.00,1,,298
2012-10-29,68,56,44,45,36,25,76,51,11,30.05,29.96,29.86,19,16,12,9,5,,0.00,,,249
2012-10-30,66,56,47,57,49,41,100,73,43,29.86,29.66,29.47,12,7,6,9,5,,0.01,4,Rain,10
2012-10-31,68,58,47,57,47,42,100,62,31,29.59,29.48,29.39,16,7,6,26,10,38,0.04,2,Rain,279